Earlysville, VA

4:25 AM EDT on August 29, 2016 (GMT -0400)
Charlottesville-Albemarle

Weather History for KCHO - February, 2011

Change the Weather History Date:

Friday, February 18, 2011

  Actual Average Record
Temperature  
Mean Temperature 66 °F 39 °F  
Max Temperature 77 °F 49 °F 77 °F (1976)
Min Temperature 54 °F 28 °F 4 °F (1979)
Degree Days  
Heating Degree Days 0 26  
Month to date heating degree days 416 500  
Since 1 July heating degree days 3054 3160  
Cooling Degree Days 1 0  
Month to date cooling degree days 1 0  
Year to date cooling degree days 1 0  
Growing Degree Days 15 (Base 50)    
Moisture  
Dew Point 39 °F    
Average Humidity 41    
Maximum Humidity 72    
Minimum Humidity 9    
Precipitation  
Precipitation 0.00 in 0.11 in 0.68 in (2003)
Month to date precipitation 0.80 1.64  
Year to date precipitation 1.70 4.41  
Sea Level Pressure  
Sea Level Pressure 29.93 in    
Wind  
Wind Speed 8 mph (SSW)    
Max Wind Speed 14 mph    
Max Gust Speed 24 mph    
Visibility 10 miles    
Events      
T = Trace of Precipitation, MM = Missing Value Source: NWS Daily Summary

Daily Weather History Graph

Daily Weather History Graph

Search for Another Location

Airport or City:

Trip Planner

Search our weather history database for the weather conditions in past years. The results will help you decide how hot, cold, wet, or windy it might be!

Date:

Astronomy

Feb. 18, 2011 Rise Set
Actual Time 7:00 AM EST 5:55 PM EST
Civil Twilight 6:33 AM EST 6:22 PM EST
Nautical Twilight 6:03 AM EST 6:53 PM EST
Astronomical Twilight 5:32 AM EST 7:23 PM EST
Moon 6:43 PM EST (2/18) 6:49 AM EST (2/18)
Length of Visible Light 11h 48m
Length of Day
10h 54m
Full, 100% of the Moon is Illuminated
Feb 18
Full
Feb 24
Last Quarter
Mar 4
New
Mar 12
First Quarter
Mar 19
Full

Hourly Weather History & Observations

Time (EST) Temp. Dew Point Humidity Pressure Visibility Wind Dir Wind Speed Gust Speed Precip Events Conditions
12:53 AM 57.0 °F 46.0 °F 67% 29.94 in 10.0 mi South 11.5 mph - N/A   Clear
1:53 AM 55.9 °F 46.0 °F 69% 29.94 in 10.0 mi South 6.9 mph - N/A   Clear
2:53 AM 55.0 °F 46.0 °F 72% 29.94 in 10.0 mi South 6.9 mph - N/A   Clear
3:53 AM 55.9 °F 46.0 °F 69% 29.93 in 10.0 mi South 10.4 mph - N/A   Clear
4:53 AM 55.9 °F 46.0 °F 69% 29.94 in 10.0 mi South 9.2 mph - N/A   Clear
5:53 AM 57.0 °F 43.0 °F 59% 29.94 in 10.0 mi South 5.8 mph - N/A   Clear
6:53 AM 59.0 °F 42.1 °F 53% 29.94 in 10.0 mi SSE 4.6 mph - N/A   Clear
7:53 AM 57.9 °F 44.1 °F 60% 29.95 in 10.0 mi South 9.2 mph - N/A   Clear
8:53 AM 59.0 °F 46.0 °F 62% 29.95 in 10.0 mi South 9.2 mph - N/A   Clear
9:53 AM 62.1 °F 46.9 °F 58% 29.94 in 10.0 mi SSE 10.4 mph - N/A   Clear
10:53 AM 69.1 °F 46.9 °F 45% 29.94 in 10.0 mi South 9.2 mph - N/A   Scattered Clouds
11:53 AM 71.1 °F 46.9 °F 42% 29.92 in 10.0 mi South 8.1 mph - N/A   Mostly Cloudy
12:53 PM 75.0 °F 46.9 °F 37% 29.89 in 10.0 mi West 11.5 mph - N/A   Mostly Cloudy
1:53 PM 75.9 °F 46.9 °F 36% 29.87 in 10.0 mi West 9.2 mph 20.7 mph N/A   Scattered Clouds
2:53 PM 73.0 °F 48.0 °F 41% 29.88 in 10.0 mi Variable 3.5 mph 20.7 mph N/A   Mostly Cloudy
3:53 PM 72.0 °F 48.0 °F 43% 29.88 in 10.0 mi WSW 9.2 mph - N/A   Scattered Clouds
4:53 PM 72.0 °F 46.9 °F 41% 29.87 in 10.0 mi Variable 4.6 mph - N/A   Scattered Clouds
5:53 PM 71.1 °F 46.0 °F 41% 29.89 in 10.0 mi WSW 6.9 mph - N/A   Overcast
6:53 PM 69.1 °F 43.0 °F 39% 29.94 in 10.0 mi WNW 8.1 mph 17.3 mph N/A   Scattered Clouds
7:53 PM 66.9 °F 37.0 °F 33% 29.94 in 10.0 mi Variable 6.9 mph 18.4 mph N/A   Clear
8:53 PM 66.0 °F 17.1 °F 15% 29.96 in 10.0 mi WNW 8.1 mph 19.6 mph N/A   Clear
9:53 PM 64.0 °F 5.0 °F 10% 29.96 in 10.0 mi Variable 6.9 mph 19.6 mph N/A   Clear
10:53 PM 61.0 °F 6.1 °F 11% 29.96 in 10.0 mi WNW 9.2 mph 16.1 mph N/A   Clear
11:53 PM 59.0 °F -2.9 °F 8% 29.97 in 10.0 mi Variable 6.9 mph - N/A   Clear